QPF
0.01 0.00 0.00 0.00 0.00 0.00 0.00 0.00 0.00 0.00 0.00 0.00 0.00 0.00 0.00 0.00 0.00 0.00 0.00 0.00 0.00 0.00 0.00 0.00 0.00 0.00 0.00 0.01 0.01 0.00 0.01 0.01 0.02 0.02 0.01 0.02 0.02 0.02 0.03 0.04 0.03 0.03 0.03 0.03
0.01 0.01 0.00 0.00 0.00 0.00 0.00 0.00 0.00 0.00 0.00 0.00 0.00 0.00 0.00 0.00 0.00 0.00 0.00 0.00 0.00 0.00 0.01 0.01 0.01 0.01 0.01 0.01 0.01 0.01 0.01 0.01 0.01 0.02 0.02 0.03 0.03 0.03 0.04 0.04 0.03 0.03 0.03 0.03
0.00 0.00 0.00 0.00 0.00 0.00 0.00 0.00 0.00 0.00 0.00 0.00 0.00 0.00 0.00 0.00 0.00 0.00 0.00 0.00 0.01 0.01 0.01 0.01 0.01 0.02 0.02 0.01 0.01 0.01 0.02 0.01 0.01 0.01 0.01 0.03 0.03 0.04 0.04 0.04 0.04 0.05 0.04 0.03
0.01 0.00 0.00 0.00 0.00 0.00 0.00 0.00 0.00 0.00 0.00 0.00 0.00 0.00 0.00 0.00 0.00 0.00 0.00 0.00 0.00 0.00 0.01 0.01 0.01 0.02 0.02 0.02 0.01 0.01 0.01 0.02 0.01 0.00 0.01 0.02 0.02 0.03 0.03 0.04 0.04 0.05 0.07 0.06
0.02 0.01 0.00 0.00 0.00 0.00 0.00 0.00 0.00 0.00 0.00 0.00 0.00 0.00 0.00 0.00 0.00 0.00 0.00 0.00 0.00 0.00 0.01 0.01 0.02 0.03 0.04 0.03 0.02 0.01 0.01 0.01 0.01 0.01 0.01 0.02 0.02 0.02 0.03 0.03 0.03 0.04 0.05 0.06
0.02 0.01 0.01 0.00 0.00 0.00 0.00 0.00 0.00 0.00 0.00 0.00 0.00 0.00 0.00 0.00 0.00 0.00 0.00 0.00 0.00 0.01 0.01 0.02 0.03 0.05 0.05 0.04 0.02 0.01 0.01 0.00 0.00 0.01 0.01 0.01 0.01 0.02 0.02 0.02 0.03 0.04 0.05 0.05
0.02 0.02 0.01 0.00 0.00 0.00 0.00 0.00 0.00 0.00 0.00 0.00 0.00 0.00 0.00 0.00 0.00 0.00 0.00 0.00 0.00 0.01 0.01 0.03 0.06 0.07 0.06 0.04 0.03 0.02 0.01 0.01 0.01 0.01 0.01 0.02 0.01 0.02 0.02 0.02 0.03 0.04 0.04 0.04
0.02 0.02 0.01 0.00 0.00 0.00 0.00 0.00 0.00 0.00 0.00 0.00 0.00 0.00 0.00 0.00 0.00 0.00 0.00 0.00 0.00 0.00 0.01 0.02 0.06 0.08 0.07 0.05 0.04 0.03 0.02 0.02 0.01 0.01 0.01 0.02 0.02 0.02 0.02 0.03 0.04 0.04 0.05 0.05
0.02 0.02 0.01 0.00 0.00 0.00 0.00 0.00 0.00 0.00 0.00 0.00 0.00 0.00 0.00 0.00 0.00 0.00 0.00 0.00 0.00 0.00 0.01 0.02 0.04 0.05 0.05 0.05 0.04 0.04 0.04 0.03 0.03 0.02 0.02 0.02 0.02 0.03 0.03 0.04 0.04 0.04 0.05 0.06
0.02 0.02 0.01 0.01 0.00 0.00 0.00 0.00 0.00 0.00 0.00 0.00 0.00 0.00 0.00 0.00 0.00 0.00 0.00 0.01 0.01 0.00 0.00 0.02 0.04 0.04 0.05 0.04 0.04 0.04 0.05 0.05 0.05 0.03 0.03 0.02 0.02 0.02 0.03 0.03 0.04 0.05 0.06 0.06
0.02 0.02 0.02 0.01 0.01 0.01 0.00 0.00 0.00 0.00 0.00 0.00 0.00 0.00 0.00 0.00 0.00 0.01 0.01 0.01 0.01 0.01 0.01 0.02 0.03 0.04 0.04 0.03 0.04 0.04 0.05 0.05 0.05 0.05 0.04 0.04 0.03 0.02 0.02 0.02 0.02 0.03 0.05 0.07
0.02 0.01 0.02 0.01 0.01 0.00 0.00 0.00 0.00 0.00 0.00 0.00 0.00 0.00 0.00 0.01 0.01 0.01 0.01 0.01 0.01 0.01 0.01 0.03 0.03 0.03 0.03 0.03 0.03 0.03 0.04 0.05 0.04 0.06 0.05 0.05 0.03 0.03 0.02 0.01 0.01 0.01 0.03 0.05
0.01 0.01 0.01 0.01 0.00 0.00 0.01 0.01 0.00 0.00 0.00 0.00 0.00 0.00 0.00 0.01 0.01 0.01 0.02 0.02 0.02 0.02 0.02 0.03 0.04 0.04 0.03 0.03 0.03 0.03 0.03 0.04 0.04 0.05 0.06 0.04 0.04 0.03 0.02 0.02 0.01 0.01 0.01 0.02
0.01 0.01 0.01 0.01 0.00 0.00 0.00 0.00 0.00 0.00 0.01 0.01 0.01 0.00 0.00 0.00 0.00 0.01 0.01 0.02 0.03 0.03 0.03 0.03 0.04 0.05 0.04 0.04 0.04 0.04 0.05 0.06 0.05 0.03 0.05 0.06 0.05 0.04 0.03 0.02 0.02 0.01 0.01 0.01
0.01 0.01 0.01 0.00 0.00 0.00 0.00 0.00 0.00 0.00 0.00 0.01 0.01 0.01 0.01 0.00 0.00 0.00 0.00 0.01 0.02 0.04 0.04 0.04 0.04 0.04 0.05 0.05 0.04 0.05 0.07 0.07 0.05 0.04 0.04 0.06 0.07 0.04 0.03 0.02 0.01 0.01 0.02 0.02
0.00 0.00 0.00 0.00 0.00 0.00 0.00 0.00 0.01 0.01 0.01 0.01 0.01 0.01 0.01 0.01 0.00 0.00 0.00 0.01 0.02 0.03 0.04 0.04 0.04 0.04 0.04 0.04 0.03 0.05 0.07 0.07 0.04 0.04 0.04 0.04 0.05 0.02 0.01 0.01 0.01 0.01 0.01 0.02
0.00 0.00 0.00 0.00 0.00 0.00 0.00 0.00 0.01 0.01 0.01 0.01 0.01 0.01 0.01 0.01 0.01 0.01 0.01 0.00 0.01 0.02 0.03 0.03 0.03 0.05 0.05 0.04 0.04 0.04 0.04 0.04 0.04 0.05 0.05 0.04 0.03 0.02 0.01 0.01 0.01 0.01 0.01 0.01
0.00 0.00 0.00 0.00 0.01 0.01 0.01 0.01 0.01 0.01 0.01 0.01 0.01 0.01 0.01 0.01 0.01 0.01 0.02 0.01 0.01 0.02 0.03 0.02 0.02 0.04 0.04 0.04 0.04 0.04 0.04 0.04 0.03 0.03 0.04 0.04 0.03 0.02 0.01 0.01 0.01 0.01 0.01 0.01
0.00 0.00 0.00 0.00 0.00 0.01 0.01 0.01 0.02 0.01 0.01 0.01 0.01 0.02 0.01 0.01 0.01 0.02 0.03 0.04 0.03 0.02 0.03 0.03 0.03 0.03 0.03 0.04 0.03 0.04 0.04 0.03 0.03 0.02 0.03 0.03 0.02 0.02 0.02 0.01 0.01 0.01 0.01 0.01
0.00 0.00 0.00 0.00 0.00 0.01 0.02 0.03 0.02 0.01 0.01 0.01 0.02 0.01 0.01 0.01 0.01 0.02 0.04 0.06 0.05 0.03 0.03 0.03 0.03 0.02 0.03 0.04 0.03 0.03 0.04 0.04 0.03 0.02 0.02 0.02 0.02 0.01 0.01 0.01 0.01 0.01 0.01 0.01
0.00 0.00 0.00 0.01 0.01 0.02 0.03 0.02 0.02 0.02 0.01 0.01 0.01 0.01 0.02 0.02 0.02 0.02 0.03 0.03 0.03 0.03 0.02 0.03 0.03 0.02 0.02 0.03 0.03 0.03 0.04 0.03 0.02 0.02 0.01 0.02 0.01 0.01 0.01 0.01 0.01 0.00 0.01 0.01
0.00 0.00 0.00 0.01 0.02 0.03 0.02 0.02 0.03 0.03 0.02 0.01 0.01 0.02 0.02 0.02 0.02 0.02 0.02 0.03 0.03 0.03 0.02 0.02 0.02 0.02 0.02 0.03 0.03 0.04 0.04 0.03 0.02 0.01 0.01 0.01 0.01 0.01 0.01 0.01 0.01 0.00 0.00 0.01
0.01 0.01 0.01 0.02 0.03 0.04 0.03 0.02 0.02 0.02 0.03 0.02 0.02 0.02 0.02 0.02 0.02 0.02 0.02 0.02 0.03 0.03 0.03 0.03 0.02 0.03 0.03 0.03 0.04 0.04 0.03 0.02 0.02 0.01 0.01 0.01 0.01 0.01 0.01 0.01 0.01 0.01 0.01 0.01
0.01 0.01 0.01 0.02 0.03 0.04 0.03 0.03 0.02 0.02 0.02 0.03 0.02 0.02 0.02 0.03 0.03 0.02 0.03 0.03 0.04 0.04 0.05 0.05 0.04 0.03 0.04 0.04 0.05 0.04 0.02 0.02 0.02 0.01 0.01 0.01 0.01 0.01 0.01 0.01 0.01 0.01 0.01 0.01
0.02 0.02 0.02 0.02 0.03 0.03 0.04 0.03 0.02 0.02 0.02 0.02 0.02 0.02 0.02 0.03 0.04 0.04 0.04 0.05 0.06 0.06 0.05 0.06 0.05 0.04 0.04 0.05 0.05 0.04 0.02 0.02 0.02 0.02 0.01 0.01 0.01 0.01 0.01 0.01 0.01 0.01 0.01 0.01
0.02 0.02 0.03 0.03 0.03 0.03 0.04 0.04 0.04 0.02 0.02 0.03 0.03 0.03 0.03 0.03 0.04 0.04 0.04 0.05 0.05 0.05 0.05 0.05 0.06 0.05 0.05 0.06 0.07 0.05 0.03 0.02 0.02 0.02 0.02 0.02 0.02 0.02 0.02 0.02 0.02 0.02 0.02 0.02
0.02 0.02 0.03 0.03 0.03 0.04 0.05 0.06 0.06 0.05 0.04 0.04 0.04 0.05 0.05 0.06 0.06 0.05 0.04 0.04 0.04 0.04 0.04 0.05 0.05 0.05 0.06 0.08 0.08 0.06 0.04 0.03 0.03 0.03 0.03 0.03 0.04 0.04 0.04 0.03 0.03 0.03 0.04 0.04
MSLP
1012.01 1011.24 1010.51 1009.87 1009.36 1009.01 1008.80 1008.73 1008.77 1008.91 1009.14 1009.43 1009.78 1010.18 1010.62 1011.08 1011.56 1012.04 1012.49 1012.91 1013.28 1013.61 1013.92 1014.20 1014.48 1014.77 1015.07 1015.38 1015.67 1015.95 1016.18 1016.37 1016.49 1016.57 1016.61 1016.64 1016.68 1016.74 1016.84 1016.97 1017.12 1017.29 1017.44 1017.57
1012.40 1011.58 1010.73 1009.91 1009.19 1008.61 1008.21 1008.00 1007.96 1008.09 1008.36 1008.73 1009.19 1009.70 1010.22 1010.74 1011.23 1011.68 1012.10 1012.47 1012.82 1013.14 1013.47 1013.81 1014.17 1014.54 1014.94 1015.33 1015.70 1016.03 1016.31 1016.53 1016.70 1016.81 1016.90 1016.99 1017.09 1017.21 1017.37 1017.55 1017.73 1017.91 1018.06 1018.18
1012.64 1011.77 1010.81 1009.83 1008.91 1008.14 1007.56 1007.21 1007.09 1007.20 1007.51 1007.96 1008.51 1009.11 1009.71 1010.28 1010.80 1011.25 1011.64 1011.98 1012.30 1012.62 1012.97 1013.34 1013.76 1014.21 1014.67 1015.13 1015.57 1015.95 1016.27 1016.53 1016.73 1016.89 1017.04 1017.20 1017.37 1017.57 1017.80 1018.03 1018.27 1018.48 1018.65 1018.77
1012.63 1011.72 1010.65 1009.52 1008.44 1007.49 1006.76 1006.29 1006.11 1006.20 1006.54 1007.06 1007.71 1008.41 1009.10 1009.74 1010.30 1010.77 1011.16 1011.50 1011.81 1012.12 1012.47 1012.87 1013.32 1013.81 1014.32 1014.82 1015.29 1015.71 1016.06 1016.35 1016.60 1016.81 1017.02 1017.25 1017.50 1017.79 1018.10 1018.41 1018.70 1018.96 1019.17 1019.32
1012.33 1011.36 1010.19 1008.94 1007.71 1006.63 1005.78 1005.22 1004.99 1005.09 1005.46 1006.06 1006.81 1007.61 1008.41 1009.14 1009.78 1010.30 1010.73 1011.08 1011.40 1011.72 1012.07 1012.48 1012.94 1013.43 1013.95 1014.46 1014.94 1015.37 1015.74 1016.06 1016.34 1016.61 1016.89 1017.20 1017.55 1017.92 1018.32 1018.71 1019.07 1019.39 1019.65 1019.84
1011.75 1010.70 1009.45 1008.10 1006.77 1005.58 1004.65 1004.04 1003.79 1003.90 1004.33 1005.01 1005.87 1006.80 1007.72 1008.57 1009.30 1009.91 1010.39 1010.79 1011.13 1011.47 1011.82 1012.22 1012.66 1013.14 1013.63 1014.13 1014.59 1015.01 1015.39 1015.74 1016.06 1016.39 1016.75 1017.14 1017.58 1018.05 1018.53 1019.01 1019.44 1019.82 1020.13 1020.37
1010.96 1009.83 1008.51 1007.08 1005.69 1004.45 1003.48 1002.85 1002.61 1002.75 1003.25 1004.02 1004.99 1006.04 1007.10 1008.07 1008.93 1009.64 1010.21 1010.66 1011.05 1011.39 1011.74 1012.12 1012.52 1012.96 1013.42 1013.87 1014.31 1014.72 1015.10 1015.48 1015.85 1016.25 1016.68 1017.16 1017.69 1018.25 1018.83 1019.38 1019.89 1020.32 1020.67 1020.95
1010.05 1008.87 1007.50 1006.04 1004.62 1003.38 1002.41 1001.79 1001.58 1001.77 1002.34 1003.20 1004.27 1005.44 1006.62 1007.72 1008.69 1009.51 1010.17 1010.70 1011.12 1011.48 1011.82 1012.16 1012.53 1012.91 1013.32 1013.73 1014.13 1014.54 1014.93 1015.34 1015.77 1016.24 1016.76 1017.34 1017.96 1018.61 1019.26 1019.88 1020.45 1020.93 1021.31 1021.61
1009.16 1007.94 1006.57 1005.12 1003.73 1002.51 1001.58 1001.01 1000.84 1001.09 1001.71 1002.64 1003.79 1005.06 1006.33 1007.54 1008.61 1009.52 1010.26 1010.84 1011.30 1011.67 1012.00 1012.31 1012.63 1012.97 1013.32 1013.70 1014.08 1014.49 1014.91 1015.37 1015.86 1016.41 1017.02 1017.69 1018.40 1019.13 1019.85 1020.53 1021.14 1021.65 1022.06 1022.37
1008.38 1007.17 1005.83 1004.44 1003.12 1001.97 1001.10 1000.59 1000.47 1000.76 1001.42 1002.39 1003.59 1004.90 1006.23 1007.50 1008.64 1009.61 1010.41 1011.03 1011.51 1011.89 1012.21 1012.50 1012.78 1013.08 1013.40 1013.75 1014.14 1014.56 1015.03 1015.54 1016.11 1016.75 1017.45 1018.20 1018.99 1019.79 1020.56 1021.28 1021.92 1022.45 1022.86 1023.18
1007.76 1006.61 1005.35 1004.06 1002.84 1001.79 1001.01 1000.56 1000.49 1000.81 1001.48 1002.45 1003.64 1004.95 1006.29 1007.57 1008.73 1009.73 1010.55 1011.19 1011.69 1012.07 1012.38 1012.65 1012.91 1013.19 1013.50 1013.86 1014.26 1014.73 1015.25 1015.83 1016.49 1017.21 1017.99 1018.81 1019.66 1020.51 1021.32 1022.06 1022.71 1023.25 1023.67 1023.98
1007.29 1006.24 1005.11 1003.95 1002.87 1001.94 1001.25 1000.87 1000.83 1001.15 1001.80 1002.73 1003.87 1005.14 1006.43 1007.68 1008.82 1009.81 1010.63 1011.28 1011.77 1012.16 1012.47 1012.73 1013.00 1013.28 1013.61 1013.99 1014.43 1014.95 1015.53 1016.19 1016.92 1017.71 1018.55 1019.43 1020.32 1021.19 1022.01 1022.76 1023.42 1023.96 1024.38 1024.69
1006.91 1006.00 1005.02 1004.02 1003.08 1002.28 1001.69 1001.37 1001.36 1001.66 1002.27 1003.13 1004.20 1005.38 1006.60 1007.78 1008.87 1009.82 1010.62 1011.26 1011.76 1012.16 1012.48 1012.76 1013.04 1013.35 1013.71 1014.13 1014.63 1015.20 1015.84 1016.56 1017.34 1018.18 1019.06 1019.97 1020.87 1021.74 1022.57 1023.31 1023.96 1024.50 1024.93 1025.26
1006.54 1005.79 1004.97 1004.14 1003.36 1002.69 1002.19 1001.93 1001.93 1002.21 1002.76 1003.54 1004.52 1005.60 1006.73 1007.83 1008.86 1009.77 1010.55 1011.18 1011.69 1012.10 1012.44 1012.75 1013.07 1013.42 1013.82 1014.29 1014.84 1015.46 1016.15 1016.91 1017.73 1018.59 1019.48 1020.37 1021.26 1022.12 1022.92 1023.65 1024.29 1024.84 1025.28 1025.64
1006.14 1005.54 1004.89 1004.22 1003.58 1003.03 1002.62 1002.41 1002.42 1002.68 1003.17 1003.88 1004.76 1005.75 1006.79 1007.83 1008.80 1009.68 1010.44 1011.07 1011.60 1012.04 1012.41 1012.77 1013.13 1013.53 1013.98 1014.49 1015.08 1015.73 1016.45 1017.23 1018.05 1018.90 1019.76 1020.63 1021.48 1022.29 1023.06 1023.77 1024.40 1024.96 1025.43 1025.82
1005.69 1005.23 1004.72 1004.19 1003.68 1003.23 1002.90 1002.73 1002.76 1002.99 1003.44 1004.09 1004.90 1005.81 1006.79 1007.77 1008.71 1009.57 1010.33 1010.98 1011.54 1012.01 1012.44 1012.84 1013.25 1013.69 1014.17 1014.72 1015.33 1016.00 1016.73 1017.49 1018.29 1019.10 1019.92 1020.73 1021.53 1022.29 1023.02 1023.70 1024.33 1024.89 1025.39 1025.83
1005.23 1004.88 1004.49 1004.07 1003.66 1003.29 1003.02 1002.88 1002.92 1003.14 1003.56 1004.16 1004.92 1005.79 1006.73 1007.68 1008.61 1009.47 1010.25 1010.93 1011.53 1012.05 1012.52 1012.97 1013.42 1013.89 1014.41 1014.97 1015.59 1016.25 1016.96 1017.69 1018.45 1019.21 1019.97 1020.71 1021.45 1022.16 1022.85 1023.50 1024.12 1024.70 1025.23 1025.72
1004.83 1004.57 1004.25 1003.91 1003.56 1003.25 1003.01 1002.89 1002.92 1003.13 1003.53 1004.10 1004.83 1005.68 1006.60 1007.55 1008.49 1009.37 1010.18 1010.91 1011.55 1012.12 1012.63 1013.12 1013.60 1014.10 1014.63 1015.20 1015.81 1016.45 1017.13 1017.82 1018.52 1019.23 1019.92 1020.61 1021.29 1021.95 1022.59 1023.22 1023.84 1024.43 1025.00 1025.53
1004.59 1004.37 1004.10 1003.79 1003.46 1003.16 1002.93 1002.80 1002.82 1003.01 1003.38 1003.93 1004.65 1005.48 1006.41 1007.37 1008.32 1009.24 1010.09 1010.85 1011.54 1012.15 1012.70 1013.23 1013.73 1014.25 1014.78 1015.35 1015.94 1016.57 1017.21 1017.86 1018.52 1019.17 1019.82 1020.45 1021.08 1021.70 1022.32 1022.93 1023.54 1024.14 1024.73 1025.30
1004.55 1004.34 1004.07 1003.76 1003.42 1003.10 1002.83 1002.67 1002.65 1002.81 1003.14 1003.67 1004.36 1005.19 1006.11 1007.08 1008.06 1009.01 1009.89 1010.70 1011.43 1012.08 1012.67 1013.22 1013.74 1014.27 1014.81 1015.37 1015.96 1016.56 1017.19 1017.81 1018.44 1019.06 1019.67 1020.28 1020.87 1021.46 1022.06 1022.66 1023.26 1023.87 1024.47 1025.06
1004.71 1004.49 1004.19 1003.83 1003.45 1003.07 1002.74 1002.52 1002.44 1002.53 1002.82 1003.30 1003.96 1004.77 1005.69 1006.67 1007.66 1008.64 1009.55 1010.40 1011.16 1011.85 1012.47 1013.04 1013.59 1014.13 1014.68 1015.25 1015.83 1016.44 1017.05 1017.68 1018.29 1018.90 1019.50 1020.09 1020.67 1021.25 1021.83 1022.42 1023.01 1023.62 1024.22 1024.81
1005.01 1004.75 1004.40 1003.98 1003.51 1003.05 1002.63 1002.32 1002.16 1002.18 1002.40 1002.82 1003.44 1004.22 1005.12 1006.10 1007.10 1008.10 1009.04 1009.92 1010.71 1011.43 1012.09 1012.69 1013.27 1013.83 1014.40 1014.98 1015.58 1016.20 1016.83 1017.47 1018.09 1018.71 1019.31 1019.90 1020.48 1021.05 1021.62 1022.20 1022.78 1023.37 1023.96 1024.55
1005.34 1005.03 1004.61 1004.10 1003.54 1002.98 1002.47 1002.05 1001.79 1001.72 1001.87 1002.23 1002.80 1003.54 1004.42 1005.39 1006.40 1007.41 1008.38 1009.28 1010.11 1010.87 1011.56 1012.20 1012.81 1013.41 1014.01 1014.62 1015.25 1015.89 1016.55 1017.21 1017.86 1018.49 1019.11 1019.71 1020.29 1020.85 1021.42 1021.98 1022.54 1023.11 1023.68 1024.24
1005.57 1005.20 1004.71 1004.12 1003.46 1002.80 1002.18 1001.67 1001.32 1001.17 1001.23 1001.53 1002.05 1002.76 1003.62 1004.58 1005.60 1006.62 1007.61 1008.55 1009.42 1010.21 1010.95 1011.63 1012.28 1012.91 1013.55 1014.20 1014.86 1015.54 1016.22 1016.91 1017.59 1018.25 1018.88 1019.49 1020.07 1020.63 1021.18 1021.72 1022.26 1022.80 1023.34 1023.88
1005.59 1005.16 1004.60 1003.93 1003.19 1002.44 1001.73 1001.15 1000.72 1000.50 1000.52 1000.77 1001.25 1001.94 1002.78 1003.74 1004.77 1005.81 1006.83 1007.80 1008.71 1009.54 1010.32 1011.04 1011.73 1012.40 1013.08 1013.76 1014.45 1015.16 1015.87 1016.58 1017.28 1017.95 1018.60 1019.21 1019.79 1020.35 1020.88 1021.40 1021.91 1022.43 1022.94 1023.45
1005.32 1004.83 1004.21 1003.47 1002.67 1001.86 1001.11 1000.48 1000.01 999.76 999.74 999.98 1000.45 1001.13 1001.97 1002.94 1003.98 1005.04 1006.09 1007.09 1008.03 1008.91 1009.72 1010.47 1011.20 1011.90 1012.60 1013.30 1014.02 1014.74 1015.47 1016.19 1016.90 1017.58 1018.23 1018.85 1019.42 1019.97 1020.49 1020.99 1021.48 1021.97 1022.47 1022.96
1004.71 1004.18 1003.52 1002.75 1001.92 1001.09 1000.32 999.68 999.21 998.97 998.96 999.20 999.69 1000.38 1001.24 1002.22 1003.28 1004.36 1005.43 1006.45 1007.42 1008.32 1009.15 1009.93 1010.67 1011.39 1012.10 1012.81 1013.53 1014.26 1014.98 1015.71 1016.41 1017.10 1017.74 1018.35 1018.93 1019.47 1019.98 1020.47 1020.96 1021.44 1021.93 1022.41
Thickness
5685 5690 5690 5688 5689 5690 5686 5687 5680 5685 5686 5690 5693 5693 5694 5695 5694 5692 5691 5690 5689 5687 5687 5687 5687 5688 5687 5686 5686 5685 5684 5683 5683 5685 5685 5685 5685 5686 5687 5687 5688 5687 5687 5687
5675 5682 5682 5681 5687 5687 5685 5685 5683 5682 5681 5691 5692 5691 5689 5687 5686 5683 5683 5683 5683 5682 5682 5681 5681 5682 5682 5682 5681 5681 5679 5679 5680 5680 5680 5680 5681 5682 5683 5683 5684 5683 5683 5682
5661 5672 5672 5669 5683 5684 5682 5683 5680 5672 5676 5683 5681 5680 5679 5679 5678 5677 5676 5676 5675 5675 5674 5675 5676 5677 5676 5677 5677 5676 5674 5675 5675 5675 5675 5676 5677 5678 5678 5678 5679 5678 5678 5678
5650 5655 5647 5668 5687 5685 5679 5676 5678 5675 5675 5676 5675 5675 5675 5675 5671 5670 5669 5668 5668 5668 5668 5670 5672 5672 5673 5673 5672 5671 5669 5670 5670 5670 5669 5670 5671 5672 5673 5674 5673 5673 5673 5673
5641 5642 5653 5665 5674 5674 5667 5664 5673 5669 5668 5669 5671 5669 5666 5668 5666 5663 5662 5662 5662 5663 5664 5664 5665 5666 5665 5665 5665 5665 5664 5664 5665 5665 5664 5664 5665 5666 5668 5669 5669 5669 5669 5668
5635 5631 5634 5653 5668 5674 5664 5651 5664 5664 5660 5660 5658 5646 5649 5657 5658 5656 5656 5656 5656 5657 5658 5657 5658 5659 5658 5657 5658 5658 5659 5660 5661 5661 5659 5659 5660 5661 5663 5664 5664 5665 5664 5664
5627 5627 5637 5654 5663 5662 5639 5640 5655 5656 5653 5651 5646 5643 5647 5650 5648 5647 5647 5648 5648 5649 5649 5650 5652 5652 5650 5650 5651 5653 5655 5655 5656 5656 5655 5654 5655 5656 5658 5659 5659 5659 5659 5659
5627 5621 5627 5650 5650 5641 5639 5648 5649 5647 5646 5643 5641 5641 5641 5640 5638 5638 5638 5639 5640 5640 5640 5643 5645 5644 5643 5643 5647 5649 5649 5649 5649 5650 5650 5650 5649 5650 5651 5652 5652 5652 5653 5653
5628 5627 5639 5644 5642 5644 5644 5640 5639 5638 5637 5635 5632 5630 5630 5629 5629 5629 5629 5630 5631 5631 5632 5634 5636 5636 5635 5638 5641 5642 5642 5642 5643 5643 5643 5644 5643 5643 5644 5645 5645 5646 5646 5647
5625 5628 5633 5635 5635 5636 5635 5632 5632 5630 5628 5625 5622 5621 5620 5620 5620 5620 5621 5621 5622 5623 5623 5625 5627 5628 5629 5632 5634 5635 5635 5636 5637 5637 5637 5638 5638 5638 5638 5638 5639 5640 5640 5641
5616 5621 5623 5624 5625 5625 5625 5624 5622 5620 5619 5616 5614 5612 5612 5611 5612 5612 5612 5613 5613 5613 5614 5616 5619 5620 5623 5625 5627 5627 5628 5630 5631 5632 5632 5631 5632 5632 5633 5634 5635 5635 5637 5638
5606 5614 5613 5613 5617 5617 5615 5613 5612 5610 5608 5608 5606 5604 5604 5603 5603 5603 5603 5604 5605 5606 5607 5609 5610 5612 5615 5618 5620 5621 5622 5624 5625 5625 5626 5626 5625 5626 5628 5629 5631 5632 5633 5633
5607 5610 5610 5610 5610 5609 5607 5605 5604 5602 5601 5599 5599 5597 5596 5595 5595 5595 5596 5596 5596 5597 5598 5600 5602 5604 5608 5611 5612 5614 5616 5617 5619 5620 5620 5620 5621 5621 5621 5621 5623 5624 5626 5627
5603 5602 5600 5601 5600 5600 5599 5599 5598 5596 5594 5593 5592 5591 5589 5589 5588 5588 5588 5589 5590 5590 5591 5592 5594 5597 5601 5604 5606 5608 5610 5611 5612 5613 5614 5614 5616 5617 5617 5616 5616 5616 5618 5620
5596 5596 5595 5595 5595 5594 5593 5592 5590 5588 5587 5586 5585 5584 5583 5582 5582 5582 5583 5583 5583 5583 5584 5585 5587 5590 5594 5597 5599 5602 5603 5604 5605 5606 5607 5608 5610 5612 5612 5611 5611 5611 5611 5611
5591 5591 5589 5588 5586 5586 5586 5584 5582 5581 5581 5581 5580 5579 5578 5577 5576 5576 5576 5576 5575 5576 5578 5579 5581 5584 5587 5590 5593 5595 5596 5597 5598 5598 5600 5601 5602 5605 5605 5605 5605 5605 5605 5605
5583 5582 5581 5580 5579 5579 5579 5578 5577 5577 5576 5575 5574 5574 5572 5571 5570 5569 5569 5569 5570 5570 5571 5573 5575 5578 5580 5583 5586 5588 5588 5589 5590 5591 5592 5593 5595 5597 5598 5598 5598 5598 5599 5600
5581 5579 5578 5576 5574 5574 5574 5573 5573 5572 5571 5571 5570 5568 5566 5565 5564 5564 5564 5564 5564 5565 5566 5567 5569 5571 5574 5576 5578 5580 5580 5581 5581 5583 5584 5585 5587 5589 5591 5591 5592 5591 5591 5591
5576 5574 5573 5571 5570 5569 5568 5567 5567 5567 5566 5565 5564 5562 5561 5560 5560 5559 5559 5558 5557 5559 5561 5563 5564 5564 5566 5568 5569 5570 5571 5572 5573 5574 5576 5578 5579 5581 5582 5583 5584 5584 5584 5584
5570 5569 5567 5565 5564 5562 5561 5561 5561 5561 5561 5560 5558 5556 5555 5555 5555 5555 5554 5552 5552 5553 5555 5557 5557 5559 5560 5560 5561 5562 5563 5564 5564 5566 5568 5569 5571 5572 5574 5575 5576 5576 5577 5576
5562 5561 5559 5558 5556 5556 5556 5555 5555 5555 5555 5553 5551 5549 5549 5549 5549 5548 5548 5547 5548 5549 5550 5551 5551 5552 5553 5553 5553 5554 5555 5556 5557 5558 5559 5561 5562 5564 5565 5567 5568 5568 5568 5568
5554 5553 5551 5550 5549 5549 5549 5549 5549 5549 5548 5546 5545 5544 5543 5543 5543 5542 5541 5541 5542 5543 5543 5543 5544 5545 5545 5545 5545 5546 5547 5548 5549 5550 5550 5552 5553 5554 5556 5558 5559 5560 5560 5560
5547 5546 5545 5543 5542 5542 5542 5542 5541 5540 5540 5539 5538 5537 5537 5536 5536 5535 5535 5536 5536 5537 5537 5537 5538 5538 5538 5538 5538 5538 5539 5540 5541 5542 5542 5543 5544 5545 5547 5548 5550 5551 5551 5551
5541 5540 5538 5537 5537 5536 5534 5534 5533 5533 5533 5533 5532 5531 5531 5531 5531 5530 5530 5530 5531 5530 5530 5531 5532 5532 5531 5531 5531 5532 5532 5533 5534 5534 5534 5535 5536 5536 5537 5539 5540 5541 5542 5543
5535 5533 5531 5530 5529 5528 5527 5527 5527 5527 5526 5526 5526 5526 5525 5525 5524 5524 5524 5524 5524 5524 5525 5525 5525 5525 5524 5524 5525 5525 5525 5526 5527 5526 5527 5527 5527 5528 5529 5529 5530 5531 5532 5533
5528 5526 5524 5523 5522 5521 5521 5520 5519 5519 5518 5518 5519 5518 5518 5518 5518 5517 5517 5517 5517 5517 5517 5517 5517 5517 5517 5517 5518 5519 5519 5519 5519 5520 5520 5520 5520 5521 5521 5521 5522 5523 5524 5525
5522 5520 5518 5517 5516 5515 5514 5513 5512 5512 5511 5511 5511 5511 5511 5510 5510 5510 5510 5509 5509 5509 5509 5509 5509 5509 5509 5510 5511 5511 5511 5511 5511 5512 5512 5513 5513 5513 5514 5514 5514 5515 5516 5517